| time (UTC) | temp F | wind direction | speed MPH | gust MPH | rain 1hr in | rain 24hr in | rain mn in | humidity % | barometer mb |
| 20260507173411 | 57 | 315 | 0.0 | 1.0 | 0.00 | 0.15 | 0.06 | 66 | 1014.1 |
| 20260507172914 | 57 | 320 | 0.0 | 3.0 | 0.00 | 0.21 | 0.06 | 65 | 1014.1 |
| 20260507172911 | 57 | 320 | 0.0 | 3.0 | 0.00 | 0.21 | 0.06 | 65 | 1014.1 |
| 20260507172411 | 57 | 271 | 0.0 | 5.0 | 0.00 | 0.21 | 0.06 | 64 | 1014.1 |
| 20260507171911 | 57 | 43 | 0.0 | 0.0 | 0.00 | 0.21 | 0.06 | 65 | 1014.1 |
| 20260507171414 | 57 | 43 | 0.0 | 5.0 | 0.00 | 0.21 | 0.06 | 64 | 1014.1 |
| 20260507171411 | 57 | 43 | 0.0 | 5.0 | 0.00 | 0.21 | 0.06 | 64 | 1014.1 |
| 20260507170911 | 57 | 71 | 5.0 | 5.0 | 0.00 | 0.21 | 0.06 | 65 | 1014.1 |
| 20260507170411 | 58 | 1 | 0.0 | 2.0 | 0.00 | 0.21 | 0.06 | 62 | 1014.1 |
| 20260507165914 | 58 | 317 | 1.0 | 5.0 | 0.00 | 0.21 | 0.06 | 61 | 1014.0 |
| 20260507165911 | 58 | 317 | 1.0 | 5.0 | 0.00 | 0.21 | 0.06 | 61 | 1014.0 |
| 20260507165411 | 58 | 306 | 1.0 | 3.0 | 0.00 | 0.21 | 0.06 | 61 | 1014.0 |
| 20260507164911 | 58 | 299 | 1.0 | 4.0 | 0.00 | 0.21 | 0.06 | 63 | 1014.0 |
| 20260507164411 | 58 | 316 | 0.0 | 5.0 | 0.00 | 0.21 | 0.06 | 62 | 1014.0 |
| 20260507163911 | 59 | 234 | 0.0 | 4.0 | 0.00 | 0.21 | 0.06 | 65 | 1014.0 |
| 20260507163411 | 58 | 237 | 0.0 | 4.0 | 0.00 | 0.21 | 0.06 | 62 | 1014.0 |
| 20260507162911 | 59 | 336 | 0.0 | 3.0 | 0.00 | 0.21 | 0.06 | 61 | 1014.0 |
| 20260507162411 | 58 | 334 | 0.0 | 3.0 | 0.00 | 0.22 | 0.06 | 63 | 1014.1 |
| 20260507161911 | 58 | 322 | 3.0 | 6.0 | 0.00 | 0.22 | 0.06 | 63 | 1014.0 |
| 20260507161414 | 58 | 274 | 4.0 | 4.0 | 0.00 | 0.22 | 0.06 | 66 | 1014.0 |
| 20260507161411 | 58 | 274 | 4.0 | 4.0 | 0.00 | 0.22 | 0.06 | 66 | 1014.0 |
| 20260507160911 | 58 | 248 | 0.0 | 4.0 | 0.00 | 0.22 | 0.06 | 66 | 1014.1 |
| 20260507160411 | 58 | 33 | 1.0 | 3.0 | 0.00 | 0.22 | 0.06 | 64 | 1014.0 |
| 20260507155916 | 58 | 307 | 0.0 | 2.0 | 0.00 | 0.22 | 0.06 | 64 | 1014.0 |
| 20260507155911 | 58 | 307 | 0.0 | 2.0 | 0.00 | 0.22 | 0.06 | 64 | 1014.0 |
| 20260507155411 | 58 | 319 | 1.0 | 2.0 | 0.00 | 0.22 | 0.06 | 62 | 1013.9 |
| 20260507154911 | 58 | 52 | 0.0 | 4.0 | 0.00 | 0.22 | 0.06 | 63 | 1013.9 |
| 20260507154414 | 58 | 14 | 1.0 | 6.0 | 0.00 | 0.22 | 0.06 | 63 | 1013.9 |
| 20260507154411 | 58 | 14 | 1.0 | 6.0 | 0.00 | 0.22 | 0.06 | 63 | 1013.9 |
| 20260507153958 | 58 | 26 | 3.0 | 5.0 | 0.00 | 0.22 | 0.06 | 62 | 1014.0 |
| 20260507153911 | 58 | 26 | 3.0 | 5.0 | 0.00 | 0.22 | 0.06 | 62 | 1014.0 |
| 20260507153637 | 59 | 298 | 1.0 | 3.0 | 0.00 | 0.00 | 0.00 | ||
| 20260507153411 | 59 | 298 | 1.0 | 3.0 | 0.00 | 0.22 | 0.06 | 66 | 1013.9 |
| 20260507153240 | 58 | 125 | 2.0 | 3.0 | 0.00 | 0.24 | 0.06 | 64 | 1013.9 |
| 20260507152914 | 58 | 125 | 2.0 | 3.0 | 0.00 | 0.24 | 0.06 | 64 | 1013.9 |
| 20260507152911 | 58 | 125 | 2.0 | 3.0 | 0.00 | 0.24 | 0.06 | 64 | 1013.9 |
| 20260507152411 | 58 | 136 | 0.0 | 4.0 | 0.00 | 0.24 | 0.06 | 64 | 1013.9 |
| 20260507151911 | 58 | 113 | 3.0 | 6.0 | 0.00 | 0.24 | 0.06 | 63 | 1013.9 |
| 20260507151416 | 58 | 293 | 4.0 | 6.0 | 0.00 | 0.24 | 0.06 | 65 | 1014.0 |
| 20260507151411 | 58 | 293 | 4.0 | 6.0 | 0.00 | 0.24 | 0.06 | 65 | 1014.0 |
| 20260507150911 | 58 | 268 | 1.0 | 6.0 | 0.00 | 0.24 | 0.06 | 62 | 1014.0 |
| 20260507150411 | 59 | 4 | 0.0 | 6.0 | 0.00 | 0.24 | 0.06 | 62 | 1013.9 |
| 20260507145917 | 59 | 210 | 0.0 | 7.0 | 0.00 | 0.24 | 0.06 | 64 | 1014.0 |
| 20260507145912 | 59 | 210 | 0.0 | 7.0 | 0.00 | 0.24 | 0.06 | 64 | 1014.0 |
| 20260507145411 | 59 | 279 | 2.0 | 7.0 | 0.00 | 0.24 | 0.06 | 65 | 1014.0 |
| 20260507144912 | 59 | 286 | 4.0 | 6.0 | 0.00 | 0.24 | 0.06 | 63 | 1014.0 |
| 20260507144415 | 59 | 30 | 0.0 | 9.0 | 0.00 | 0.24 | 0.06 | 63 | 1014.0 |
| 20260507144412 | 59 | 30 | 0.0 | 9.0 | 0.00 | 0.24 | 0.06 | 63 | 1014.0 |
| 20260507143912 | 59 | 5 | 0.0 | 10.0 | 0.00 | 0.24 | 0.06 | 62 | 1014.0 |
| 20260507143412 | 59 | 306 | 3.0 | 5.0 | 0.00 | 0.24 | 0.06 | 62 | 1014.1 |
| 20260507142914 | 59 | 279 | 1.0 | 8.0 | 0.00 | 0.26 | 0.06 | 62 | 1014.1 |
| 20260507142912 | 59 | 279 | 1.0 | 8.0 | 0.00 | 0.26 | 0.06 | 62 | 1014.1 |
| 20260507142412 | 60 | 309 | 7.0 | 7.0 | 0.00 | 0.26 | 0.06 | 63 | 1014.1 |
| 20260507141912 | 59 | 237 | 2.0 | 9.0 | 0.00 | 0.26 | 0.06 | 64 | 1014.1 |
| 20260507141415 | 59 | 279 | 2.0 | 8.0 | 0.00 | 0.26 | 0.06 | 60 | 1014.1 |
| 20260507141412 | 59 | 279 | 2.0 | 8.0 | 0.00 | 0.26 | 0.06 | 60 | 1014.1 |
| 20260507140912 | 59 | 94 | 0.0 | 6.0 | 0.00 | 0.26 | 0.06 | 65 | 1014.2 |
| 20260507140412 | 58 | 327 | 6.0 | 8.0 | 0.00 | 0.26 | 0.06 | 63 | 1014.3 |
| 20260507135914 | 59 | 257 | 5.0 | 12.0 | 0.00 | 0.26 | 0.06 | 61 | 1014.2 |
| 20260507135912 | 59 | 257 | 5.0 | 12.0 | 0.00 | 0.26 | 0.06 | 61 | 1014.2 |
| 20260507135412 | 59 | 264 | 5.0 | 5.0 | 0.00 | 0.26 | 0.06 | 64 | 1014.2 |
| 20260507134912 | 58 | 344 | 2.0 | 10.0 | 0.00 | 0.26 | 0.06 | 64 | 1014.3 |
| 20260507134414 | 58 | 296 | 5.0 | 7.0 | 0.00 | 0.26 | 0.06 | 66 | 1014.3 |
| 20260507134412 | 58 | 296 | 5.0 | 7.0 | 0.00 | 0.26 | 0.06 | 66 | 1014.3 |
| 20260507133912 | 58 | 258 | 4.0 | 10.0 | 0.00 | 0.26 | 0.06 | 65 | 1014.3 |
| 20260507133412 | 58 | 327 | 7.0 | 7.0 | 0.00 | 0.26 | 0.06 | 62 | 1014.3 |
| 20260507132915 | 59 | 310 | 5.0 | 10.0 | 0.00 | 0.27 | 0.06 | 61 | 1014.3 |
| 20260507132912 | 59 | 310 | 5.0 | 10.0 | 0.00 | 0.27 | 0.06 | 61 | 1014.3 |
| 20260507132412 | 59 | 170 | 0.0 | 3.0 | 0.00 | 0.27 | 0.06 | 65 | 1014.4 |
| 20260507131912 | 59 | 281 | 0.0 | 4.0 | 0.00 | 0.27 | 0.06 | 63 | 1014.4 |
| 20260507131416 | 59 | 312 | 3.0 | 7.0 | 0.00 | 0.27 | 0.06 | 62 | 1014.4 |
| 20260507131412 | 59 | 312 | 3.0 | 7.0 | 0.00 | 0.27 | 0.06 | 62 | 1014.4 |
| 20260507130912 | 60 | 268 | 4.0 | 9.0 | 0.00 | 0.27 | 0.06 | 59 | 1014.4 |
| 20260507130412 | 59 | 177 | 6.0 | 9.0 | 0.00 | 0.27 | 0.06 | 69 | 1014.5 |
| 20260507125915 | 59 | 227 | 4.0 | 7.0 | 0.00 | 0.27 | 0.06 | 63 | 1014.5 |
| 20260507125912 | 59 | 227 | 4.0 | 7.0 | 0.00 | 0.27 | 0.06 | 63 | 1014.5 |
| 20260507125505 | 58 | 312 | 0.0 | 6.0 | 0.00 | 0.27 | 0.06 | 63 | 1014.5 |
| 20260507125412 | 58 | 312 | 0.0 | 6.0 | 0.00 | 0.27 | 0.06 | 63 | 1014.5 |
| 20260507124912 | 59 | 22 | 0.0 | 6.0 | 0.00 | 0.27 | 0.06 | 60 | 1014.5 |
| 20260507124543 | 58 | 123 | 3.0 | 7.0 | 0.00 | 0.27 | 0.06 | 65 | 1014.6 |
| 20260507124415 | 58 | 123 | 3.0 | 7.0 | 0.00 | 0.27 | 0.06 | 65 | 1014.6 |
| 20260507124412 | 58 | 123 | 3.0 | 7.0 | 0.00 | 0.27 | 0.06 | 65 | 1014.6 |
| 20260507123912 | 57 | 191 | 2.0 | 8.0 | 0.00 | 0.27 | 0.06 | 67 | 1014.6 |
| 20260507123412 | 57 | 352 | 0.0 | 5.0 | 0.00 | 0.27 | 0.06 | 66 | 1014.6 |
| 20260507122916 | 57 | 278 | 3.0 | 6.0 | 0.00 | 0.27 | 0.06 | 66 | 1014.7 |
| 20260507122912 | 57 | 278 | 3.0 | 6.0 | 0.00 | 0.27 | 0.06 | 66 | 1014.7 |
| 20260507122412 | 57 | 261 | 1.0 | 5.0 | 0.00 | 0.27 | 0.06 | 68 | 1014.7 |
| 20260507121912 | 57 | 296 | 4.0 | 6.0 | 0.00 | 0.27 | 0.06 | 66 | 1014.7 |
| 20260507121416 | 57 | 39 | 0.0 | 9.0 | 0.00 | 0.27 | 0.06 | 66 | 1014.6 |
| 20260507121412 | 57 | 39 | 0.0 | 9.0 | 0.00 | 0.27 | 0.06 | 66 | 1014.6 |
| 20260507120913 | 57 | 350 | 5.0 | 8.0 | 0.00 | 0.27 | 0.06 | 68 | 1014.6 |
| 20260507120412 | 57 | 305 | 3.0 | 8.0 | 0.00 | 0.27 | 0.06 | 68 | 1014.6 |
| 20260507115915 | 57 | 8 | 1.0 | 9.0 | 0.00 | 0.27 | 0.06 | 73 | 1014.7 |
| 20260507115912 | 57 | 8 | 1.0 | 9.0 | 0.00 | 0.27 | 0.06 | 73 | 1014.7 |
| 20260507115412 | 57 | 291 | 6.0 | 9.0 | 0.00 | 0.27 | 0.06 | 72 | 1014.6 |
| 20260507114912 | 57 | 237 | 1.0 | 7.0 | 0.00 | 0.27 | 0.06 | 70 | 1014.7 |
| 20260507114417 | 57 | 333 | 6.0 | 9.0 | 0.00 | 0.27 | 0.06 | 69 | 1014.7 |
| 20260507114412 | 57 | 333 | 6.0 | 9.0 | 0.00 | 0.27 | 0.06 | 69 | 1014.7 |
| 20260507113912 | 57 | 233 | 0.0 | 4.0 | 0.00 | 0.27 | 0.06 | 69 | 1014.7 |
| 20260507113412 | 57 | 260 | 2.0 | 5.0 | 0.00 | 0.27 | 0.06 | 70 | 1014.7 |
| 20260507112915 | 57 | 320 | 1.0 | 6.0 | 0.00 | 0.31 | 0.06 | 68 | 1014.7 |
| 20260507112912 | 57 | 320 | 1.0 | 6.0 | 0.00 | 0.31 | 0.06 | 68 | 1014.7 |
| 20260507112412 | 57 | 291 | 6.0 | 7.0 | 0.00 | 0.31 | 0.06 | 66 | 1014.7 |
| 20260507111912 | 58 | 177 | 0.0 | 5.0 | 0.00 | 0.31 | 0.06 | 66 | 1014.6 |
| 20260507111416 | 58 | 291 | 4.0 | 8.0 | 0.00 | 0.31 | 0.06 | 63 | 1014.6 |
| 20260507111412 | 58 | 291 | 4.0 | 8.0 | 0.00 | 0.31 | 0.06 | 63 | 1014.6 |
| 20260507110912 | 58 | 248 | 3.0 | 8.0 | 0.00 | 0.31 | 0.06 | 65 | 1014.6 |
| 20260507110412 | 58 | 123 | 2.0 | 10.0 | 0.00 | 0.31 | 0.06 | 62 | 1014.6 |
| 20260507105915 | 58 | 208 | 8.0 | 8.0 | 0.00 | 0.31 | 0.06 | 67 | 1014.6 |
| 20260507105912 | 58 | 208 | 8.0 | 8.0 | 0.00 | 0.31 | 0.06 | 67 | 1014.6 |
| 20260507105412 | 57 | 239 | 1.0 | 10.0 | 0.00 | 0.31 | 0.06 | 68 | 1014.7 |
| 20260507104912 | 58 | 196 | 3.0 | 6.0 | 0.00 | 0.31 | 0.06 | 70 | 1014.6 |
| 20260507104415 | 57 | 243 | 4.0 | 5.0 | 0.00 | 0.31 | 0.06 | 72 | 1014.7 |
| 20260507104412 | 57 | 243 | 4.0 | 5.0 | 0.00 | 0.31 | 0.06 | 72 | 1014.7 |
| 20260507103912 | 56 | 150 | 4.0 | 8.0 | 0.00 | 0.31 | 0.06 | 74 | 1014.7 |
| 20260507103412 | 55 | 264 | 3.0 | 7.0 | 0.00 | 0.31 | 0.06 | 75 | 1014.7 |
| 20260507102917 | 54 | 270 | 0.0 | 6.0 | 0.00 | 0.42 | 0.06 | 77 | 1014.7 |
| 20260507102912 | 54 | 270 | 0.0 | 6.0 | 0.00 | 0.42 | 0.06 | 77 | 1014.7 |
| 20260507102412 | 54 | 334 | 2.0 | 6.0 | 0.00 | 0.42 | 0.06 | 79 | 1014.7 |
| 20260507101912 | 54 | 330 | 0.0 | 3.0 | 0.00 | 0.42 | 0.06 | 78 | 1014.8 |
| 20260507101416 | 54 | 320 | 1.0 | 4.0 | 0.00 | 0.42 | 0.06 | 79 | 1014.8 |
| 20260507101412 | 54 | 320 | 1.0 | 4.0 | 0.00 | 0.42 | 0.06 | 79 | 1014.8 |
| 20260507100912 | 54 | 336 | 0.0 | 6.0 | 0.00 | 0.42 | 0.06 | 78 | 1014.8 |
| 20260507100412 | 54 | 323 | 5.0 | 7.0 | 0.00 | 0.42 | 0.06 | 77 | 1014.8 |
| 20260507095915 | 55 | 37 | 1.0 | 9.0 | 0.00 | 0.42 | 0.06 | 80 | 1014.8 |
| 20260507095912 | 55 | 37 | 1.0 | 9.0 | 0.00 | 0.42 | 0.06 | 80 | 1014.8 |
| 20260507095412 | 54 | 316 | 9.0 | 9.0 | 0.00 | 0.42 | 0.06 | 80 | 1014.8 |
| 20260507094912 | 54 | 324 | 1.0 | 3.0 | 0.00 | 0.42 | 0.06 | 80 | 1014.8 |
| 20260507094415 | 53 | 255 | 0.0 | 7.0 | 0.00 | 0.42 | 0.06 | 79 | 1014.9 |
| 20260507094412 | 53 | 255 | 0.0 | 7.0 | 0.00 | 0.42 | 0.06 | 79 | 1014.9 |
| 20260507093912 | 54 | 302 | 4.0 | 8.0 | 0.00 | 0.42 | 0.06 | 81 | 1014.9 |
| 20260507093412 | 54 | 29 | 0.0 | 6.0 | 0.00 | 0.42 | 0.06 | 81 | 1014.8 |
| 20260507092915 | 54 | 82 | 0.0 | 6.0 | 0.00 | 0.55 | 0.06 | 80 | 1014.9 |
| 20260507092912 | 54 | 82 | 0.0 | 6.0 | 0.00 | 0.55 | 0.06 | 80 | 1014.9 |
| 20260507092412 | 55 | 268 | 4.0 | 8.0 | 0.00 | 0.55 | 0.06 | 76 | 1014.8 |
| 20260507091912 | 55 | 236 | 6.0 | 7.0 | 0.00 | 0.55 | 0.06 | 79 | 1014.8 |
| 20260507091415 | 54 | 274 | 2.0 | 5.0 | 0.00 | 0.55 | 0.06 | 82 | 1014.7 |
| 20260507091412 | 54 | 274 | 2.0 | 5.0 | 0.00 | 0.55 | 0.06 | 82 | 1014.7 |
| 20260507090912 | 53 | 23 | 1.0 | 4.0 | 0.00 | 0.55 | 0.06 | 83 | 1014.7 |
| 20260507090412 | 53 | 282 | 1.0 | 6.0 | 0.00 | 0.55 | 0.06 | 84 | 1014.7 |
| 20260507085915 | 53 | 299 | 0.0 | 6.0 | 0.00 | 0.55 | 0.06 | 82 | 1014.8 |
| 20260507085912 | 53 | 299 | 0.0 | 6.0 | 0.00 | 0.55 | 0.06 | 82 | 1014.8 |
| 20260507085412 | 53 | 244 | 2.0 | 6.0 | 0.00 | 0.55 | 0.06 | 84 | 1014.8 |
| 20260507084912 | 52 | 265 | 1.0 | 4.0 | 0.00 | 0.55 | 0.06 | 83 | 1014.8 |
| 20260507084415 | 52 | 286 | 3.0 | 5.0 | 0.00 | 0.55 | 0.06 | 82 | 1014.7 |
| 20260507084412 | 52 | 286 | 3.0 | 5.0 | 0.00 | 0.55 | 0.06 | 82 | 1014.7 |
| 20260507083912 | 53 | 267 | 3.0 | 8.0 | 0.00 | 0.55 | 0.06 | 85 | 1014.7 |
| 20260507083412 | 53 | 208 | 4.0 | 8.0 | 0.00 | 0.55 | 0.06 | 85 | 1014.6 |
| 20260507082916 | 52 | 257 | 2.0 | 6.0 | 0.00 | 0.55 | 0.06 | 87 | 1014.7 |
| 20260507082912 | 52 | 257 | 2.0 | 6.0 | 0.00 | 0.55 | 0.06 | 87 | 1014.7 |
| 20260507082412 | 52 | 268 | 3.0 | 6.0 | 0.00 | 0.55 | 0.06 | 88 | 1014.6 |
| 20260507081912 | 51 | 251 | 3.0 | 4.0 | 0.00 | 0.55 | 0.06 | 88 | 1014.6 |
| 20260507081416 | 51 | 258 | 0.0 | 6.0 | 0.00 | 0.55 | 0.06 | 88 | 1014.6 |
| 20260507081412 | 51 | 258 | 0.0 | 6.0 | 0.00 | 0.55 | 0.06 | 88 | 1014.6 |
| 20260507080912 | 52 | 302 | 4.0 | 6.0 | 0.00 | 0.55 | 0.06 | 88 | 1014.6 |
| 20260507080412 | 52 | 250 | 4.0 | 5.0 | 0.00 | 0.55 | 0.06 | 90 | 1014.6 |
| 20260507075915 | 51 | 271 | 3.0 | 6.0 | 0.00 | 0.55 | 0.06 | 93 | 1014.5 |
| 20260507075912 | 51 | 271 | 3.0 | 6.0 | 0.00 | 0.55 | 0.06 | 93 | 1014.5 |
| 20260507075412 | 51 | 267 | 4.0 | 8.0 | 0.00 | 0.55 | 0.06 | 93 | 1014.5 |
| 20260507074912 | 51 | 265 | 4.0 | 6.0 | 0.00 | 0.55 | 0.06 | 95 | 1014.4 |
| 20260507074412 | 51 | 232 | 2.0 | 6.0 | 0.00 | 0.55 | 0.06 | 95 | 1014.4 |
| 20260507073912 | 50 | 358 | 0.0 | 6.0 | 0.00 | 0.55 | 0.06 | 96 | 1014.4 |
| 20260507073412 | 50 | 271 | 3.0 | 6.0 | 0.00 | 0.55 | 0.06 | 96 | 1014.4 |
| 20260507072916 | 51 | 261 | 6.0 | 7.0 | 0.00 | 0.55 | 0.06 | 97 | 1014.3 |
| 20260507072912 | 51 | 261 | 6.0 | 7.0 | 0.00 | 0.55 | 0.06 | 97 | 1014.3 |
| 20260507072412 | 51 | 203 | 3.0 | 7.0 | 0.00 | 0.55 | 0.06 | 98 | 1014.2 |
| 20260507071913 | 50 | 174 | 2.0 | 6.0 | 0.00 | 0.55 | 0.06 | 99 | 1014.2 |
| 20260507071416 | 50 | 284 | 3.0 | 7.0 | 0.00 | 0.55 | 0.06 | 99 | 1014.2 |
| 20260507071413 | 50 | 284 | 3.0 | 7.0 | 0.00 | 0.55 | 0.06 | 99 | 1014.2 |
| 20260507070913 | 49 | 188 | 3.0 | 8.0 | 0.00 | 0.55 | 0.06 | 100 | 1014.1 |
| 20260507070413 | 49 | 208 | 0.0 | 8.0 | 0.00 | 0.55 | 0.06 | 100 | 1014.1 |
| 20260507065915 | 49 | 254 | 2.0 | 7.0 | 0.00 | 0.55 | 0.06 | 100 | 1014.1 |
| 20260507065913 | 49 | 254 | 2.0 | 7.0 | 0.00 | 0.55 | 0.06 | 100 | 1014.1 |
| 20260507065413 | 48 | 226 | 1.0 | 6.0 | 0.00 | 0.55 | 0.06 | 100 | 1014.0 |
| 20260507064913 | 48 | 225 | 4.0 | 7.0 | 0.00 | 0.55 | 0.06 | 100 | 1014.0 |
| 20260507064416 | 48 | 212 | 6.0 | 7.0 | 0.00 | 0.55 | 0.06 | 100 | 1014.0 |
| 20260507064413 | 48 | 212 | 6.0 | 7.0 | 0.00 | 0.55 | 0.06 | 100 | 1014.0 |
| 20260507063413 | 48 | 203 | 0.0 | 7.0 | 0.00 | 0.55 | 0.06 | 100 | 1013.9 |
| 20260507062915 | 48 | 213 | 3.0 | 6.0 | 0.00 | 0.55 | 0.06 | 100 | 1013.9 |
| 20260507062913 | 48 | 213 | 3.0 | 6.0 | 0.00 | 0.55 | 0.06 | 100 | 1013.9 |
| 20260507062413 | 48 | 156 | 1.0 | 4.0 | 0.00 | 0.55 | 0.06 | 100 | 1013.9 |
| 20260507061913 | 48 | 187 | 0.0 | 0.0 | 0.00 | 0.55 | 0.06 | 100 | 1013.8 |
| 20260507061417 | 47 | 187 | 0.0 | 1.0 | 0.00 | 0.55 | 0.06 | 100 | 1013.8 |
| 20260507061413 | 47 | 187 | 0.0 | 1.0 | 0.00 | 0.55 | 0.06 | 100 | 1013.8 |
| 20260507060913 | 47 | 187 | 0.0 | 4.0 | 0.00 | 0.55 | 0.06 | 100 | 1013.7 |
| 20260507060413 | 47 | 234 | 0.0 | 5.0 | 0.00 | 0.55 | 0.06 | 100 | 1013.7 |
| 20260507055916 | 47 | 209 | 1.0 | 5.0 | 0.00 | 0.55 | 0.06 | 100 | 1013.7 |
| 20260507055913 | 47 | 209 | 1.0 | 5.0 | 0.00 | 0.55 | 0.06 | 100 | 1013.7 |
| 20260507055413 | 47 | 264 | 2.0 | 4.0 | 0.00 | 0.55 | 0.06 | 100 | 1013.7 |
| 20260507054913 | 47 | 215 | 0.0 | 4.0 | 0.00 | 0.55 | 0.06 | 100 | 1013.7 |
| 20260507054418 | 47 | 161 | 0.0 | 6.0 | 0.00 | 0.55 | 0.06 | 100 | 1013.7 |
| 20260507054413 | 47 | 161 | 0.0 | 6.0 | 0.00 | 0.55 | 0.06 | 100 | 1013.7 |
| 20260507053913 | 47 | 225 | 3.0 | 4.0 | 0.00 | 0.55 | 0.06 | 100 | 1013.7 |
| 20260507053413 | 46 | 171 | 0.0 | 4.0 | 0.00 | 0.55 | 0.06 | 100 | 1013.7 |
| 20260507052916 | 47 | 257 | 0.0 | 5.0 | 0.00 | 0.55 | 0.06 | 100 | 1013.6 |
| 20260507052913 | 47 | 257 | 0.0 | 5.0 | 0.00 | 0.55 | 0.06 | 100 | 1013.6 |
| 20260507052413 | 46 | 270 | 0.0 | 5.0 | 0.00 | 0.55 | 0.06 | 100 | 1013.5 |
| 20260507051913 | 46 | 274 | 3.0 | 6.0 | 0.00 | 0.55 | 0.06 | 100 | 1013.5 |
| 20260507051417 | 47 | 258 | 3.0 | 5.0 | 0.00 | 0.55 | 0.06 | 100 | 1013.5 |
| 20260507051413 | 47 | 258 | 3.0 | 5.0 | 0.00 | 0.55 | 0.06 | 100 | 1013.5 |
| 20260507050913 | 46 | 185 | 1.0 | 4.0 | 0.00 | 0.55 | 0.06 | 100 | 1013.4 |
| 20260507050413 | 46 | 229 | 0.0 | 6.0 | 0.00 | 0.55 | 0.06 | 100 | 1013.4 |
| 20260507045916 | 46 | 209 | 4.0 | 6.0 | 0.00 | 0.55 | 0.06 | 100 | 1013.4 |
| 20260507045913 | 46 | 209 | 4.0 | 6.0 | 0.00 | 0.55 | 0.06 | 100 | 1013.4 |
| 20260507045413 | 46 | 250 | 3.0 | 5.0 | 0.01 | 0.55 | 0.06 | 100 | 1013.2 |
| 20260507044913 | 47 | 208 | 4.0 | 7.0 | 0.01 | 0.55 | 0.06 | 100 | 1013.1 |
| 20260507044416 | 47 | 219 | 0.0 | 3.0 | 0.01 | 0.55 | 0.06 | 100 | 1013.2 |
| 20260507044413 | 47 | 219 | 0.0 | 3.0 | 0.01 | 0.55 | 0.06 | 100 | 1013.2 |
| 20260507043913 | 47 | 185 | 0.0 | 4.0 | 0.01 | 0.55 | 0.06 | 100 | 1013.1 |
| 20260507043413 | 47 | 258 | 3.0 | 4.0 | 0.01 | 0.55 | 0.06 | 100 | 1013.1 |
| 20260507042916 | 47 | 275 | 0.0 | 3.0 | 0.02 | 0.55 | 0.06 | 100 | 1013.0 |
| 20260507042913 | 47 | 275 | 0.0 | 3.0 | 0.02 | 0.55 | 0.06 | 100 | 1013.0 |
| 20260507042413 | 46 | 286 | 0.0 | 4.0 | 0.02 | 0.55 | 0.06 | 100 | 1013.0 |
| 20260507041913 | 46 | 258 | 0.0 | 5.0 | 0.02 | 0.55 | 0.06 | 100 | 1012.9 |
| 20260507041417 | 46 | 309 | 0.0 | 6.0 | 0.02 | 0.55 | 0.06 | 100 | 1012.9 |
| 20260507041413 | 46 | 309 | 0.0 | 6.0 | 0.02 | 0.55 | 0.06 | 100 | 1012.9 |
| 20260507040913 | 46 | 230 | 0.0 | 5.0 | 0.02 | 0.55 | 0.06 | 100 | 1012.9 |
| 20260507040413 | 46 | 293 | 0.0 | 4.0 | 0.02 | 0.55 | 0.06 | 100 | 1012.9 |
| 20260507035913 | 46 | 277 | 2.0 | 8.0 | 0.02 | 0.55 | 0.06 | 100 | 1012.9 |
| 20260507035413 | 46 | 260 | 0.0 | 6.0 | 0.01 | 0.54 | 0.05 | 100 | 1012.9 |
| 20260507034913 | 46 | 222 | 0.0 | 7.0 | 0.01 | 0.54 | 0.05 | 100 | 1012.9 |
| 20260507034413 | 46 | 258 | 4.0 | 5.0 | 0.02 | 0.54 | 0.05 | 100 | 1012.9 |
| 20260507033913 | 46 | 270 | 1.0 | 8.0 | 0.02 | 0.54 | 0.05 | 100 | 1012.8 |
| 20260507033413 | 46 | 222 | 0.0 | 9.0 | 0.02 | 0.54 | 0.05 | 100 | 1012.8 |
| 20260507032913 | 47 | 258 | 2.0 | 5.0 | 0.01 | 0.53 | 0.04 | 100 | 1012.8 |
| 20260507032413 | 47 | 232 | 0.0 | 5.0 | 0.01 | 0.53 | 0.04 | 100 | 1012.8 |
| 20260507031913 | 46 | 292 | 3.0 | 4.0 | 0.01 | 0.53 | 0.04 | 100 | 1012.8 |
| 20260507031531 | 46 | 223 | 3.0 | 6.0 | 0.01 | 0.53 | 0.04 | 100 | 1012.8 |
| 20260507031413 | 46 | 223 | 3.0 | 6.0 | 0.01 | 0.53 | 0.04 | 100 | 1012.8 |
| 20260507030913 | 46 | 243 | 0.0 | 4.0 | 0.01 | 0.53 | 0.04 | 100 | 1012.7 |
| 20260507030413 | 46 | 217 | 0.0 | 6.0 | 0.01 | 0.53 | 0.04 | 100 | 1012.8 |
| 20260507025913 | 47 | 234 | 2.0 | 6.0 | 0.01 | 0.53 | 0.04 | 100 | 1012.8 |
| 20260507025413 | 47 | 253 | 3.0 | 6.0 | 0.01 | 0.53 | 0.04 | 100 | 1012.8 |
| 20260507024913 | 46 | 226 | 3.0 | 5.0 | 0.00 | 0.52 | 0.03 | 100 | 1012.7 |
| 20260507024413 | 46 | 229 | 0.0 | 6.0 | 0.00 | 0.52 | 0.03 | 100 | 1012.7 |
| 20260507023913 | 46 | 298 | 3.0 | 5.0 | 0.00 | 0.52 | 0.03 | 100 | 1012.7 |
| 20260507023413 | 46 | 237 | 0.0 | 6.0 | 0.01 | 0.52 | 0.03 | 100 | 1012.7 |
| 20260507022913 | 47 | 270 | 0.0 | 6.0 | 0.01 | 0.52 | 0.03 | 100 | 1012.6 |
| 20260507022413 | 47 | 281 | 2.0 | 4.0 | 0.01 | 0.52 | 0.03 | 100 | 1012.6 |
| 20260507021913 | 47 | 258 | 0.0 | 3.0 | 0.01 | 0.52 | 0.03 | 100 | 1012.6 |
| 20260507021413 | 47 | 236 | 0.0 | 5.0 | 0.01 | 0.52 | 0.03 | 100 | 1012.6 |
| 20260507020914 | 47 | 264 | 0.0 | 4.0 | 0.02 | 0.52 | 0.03 | 100 | 1012.6 |
| 20260507020413 | 46 | 271 | 3.0 | 5.0 | 0.02 | 0.52 | 0.03 | 100 | 1012.5 |
| 20260507015913 | 46 | 270 | 4.0 | 6.0 | 0.02 | 0.52 | 0.03 | 100 | 1012.5 |
| 20260507015413 | 46 | 267 | 0.0 | 5.0 | 0.02 | 0.52 | 0.03 | 100 | 1012.4 |
| 20260507014913 | 46 | 222 | 1.0 | 5.0 | 0.02 | 0.52 | 0.03 | 100 | 1012.4 |
| 20260507014413 | 46 | 265 | 3.0 | 6.0 | 0.02 | 0.52 | 0.03 | 100 | 1012.4 |
| 20260507013913 | 46 | 248 | 4.0 | 7.0 | 0.02 | 0.52 | 0.03 | 100 | 1012.4 |
| 20260507013413 | 46 | 248 | 5.0 | 6.0 | 0.01 | 0.51 | 0.02 | 100 | 1012.3 |
| 20260507012913 | 46 | 258 | 3.0 | 5.0 | 0.01 | 0.51 | 0.02 | 100 | 1012.3 |
| 20260507012413 | 46 | 253 | 0.0 | 5.0 | 0.01 | 0.51 | 0.02 | 100 | 1012.3 |
| 20260507011913 | 46 | 239 | 0.0 | 7.0 | 0.01 | 0.51 | 0.02 | 100 | 1012.3 |
| 20260507011413 | 46 | 254 | 4.0 | 6.0 | 0.01 | 0.51 | 0.02 | 100 | 1012.3 |
| 20260507010913 | 46 | 254 | 3.0 | 6.0 | 0.00 | 0.50 | 0.01 | 100 | 1012.3 |
| 20260507010413 | 46 | 212 | 4.0 | 6.0 | 0.00 | 0.50 | 0.01 | 100 | 1012.3 |
| 20260507005913 | 46 | 192 | 0.0 | 6.0 | 0.00 | 0.50 | 0.01 | 100 | 1012.3 |
| 20260507005413 | 46 | 250 | 2.0 | 5.0 | 0.00 | 0.50 | 0.01 | 100 | 1012.3 |
| 20260507004913 | 46 | 217 | 0.0 | 6.0 | 0.00 | 0.50 | 0.01 | 100 | 1012.3 |
| 20260507004413 | 46 | 270 | 3.0 | 6.0 | 0.00 | 0.50 | 0.01 | 100 | 1012.2 |
| 20260507003913 | 46 | 154 | 4.0 | 6.0 | 0.00 | 0.50 | 0.01 | 100 | 1012.2 |
| 20260507003413 | 46 | 268 | 1.0 | 5.0 | 0.00 | 0.50 | 0.01 | 100 | 1012.2 |
| 20260507002913 | 46 | 247 | 3.0 | 5.0 | 0.00 | 0.50 | 0.01 | 100 | 1012.2 |
| 20260507002413 | 46 | 244 | 0.0 | 7.0 | 0.00 | 0.50 | 0.01 | 100 | 1012.1 |
| 20260507001913 | 46 | 240 | 2.0 | 5.0 | 0.00 | 0.50 | 0.01 | 100 | 1012.2 |
| 20260507001413 | 46 | 226 | 2.0 | 6.0 | 0.00 | 0.50 | 0.01 | 100 | 1012.1 |
| 20260507000913 | 46 | 215 | 1.0 | 7.0 | 0.00 | 0.50 | 0.01 | 100 | 1012.1 |
| 20260507000413 | 46 | 239 | 4.0 | 6.0 | 0.00 | 0.50 | 0.01 | 100 | 1012.1 |
| 20260506235913 | 46 | 180 | 3.0 | 6.0 | 0.00 | 0.50 | 0.01 | 100 | 1012.1 |
| 20260506235413 | 46 | 246 | 0.0 | 6.0 | 0.01 | 0.50 | 0.01 | 100 | 1012.1 |
| 20260506234914 | 46 | 264 | 2.0 | 5.0 | 0.01 | 0.50 | 0.01 | 100 | 1012.0 |
| 20260506234414 | 46 | 281 | 1.0 | 7.0 | 0.01 | 0.50 | 0.01 | 100 | 1012.0 |
| 20260506233914 | 46 | 258 | 0.0 | 7.0 | 0.01 | 0.50 | 0.01 | 100 | 1012.0 |
| 20260506233414 | 46 | 251 | 5.0 | 5.0 | 0.01 | 0.50 | 0.01 | 100 | 1012.0 |
| 20260506232914 | 46 | 250 | 4.0 | 5.0 | 0.01 | 0.50 | 0.01 | 100 | 1012.0 |
| 20260506232414 | 46 | 262 | 0.0 | 5.0 | 0.01 | 0.50 | 0.01 | 100 | 1012.0 |
| 20260506231914 | 46 | 257 | 5.0 | 7.0 | 0.01 | 0.50 | 0.01 | 100 | 1011.9 |
| 20260506231414 | 46 | 244 | 4.0 | 7.0 | 0.01 | 0.50 | 0.01 | 100 | 1011.9 |
| 20260506230914 | 46 | 251 | 4.0 | 9.0 | 0.01 | 0.50 | 0.01 | 100 | 1011.9 |
| 20260506230414 | 46 | 240 | 4.0 | 9.0 | 0.01 | 0.50 | 0.01 | 100 | 1011.8 |
| 20260506225914 | 46 | 258 | 6.0 | 8.0 | 0.01 | 0.50 | 0.01 | 100 | 1011.8 |
| 20260506225414 | 46 | 275 | 2.0 | 8.0 | 0.00 | 0.49 | 0.00 | 100 | 1011.8 |
| 20260506224914 | 46 | 154 | 0.0 | 8.0 | 0.00 | 0.49 | 0.00 | 100 | 1011.8 |
| 20260506224414 | 46 | 250 | 0.0 | 8.0 | 0.00 | 0.49 | 0.00 | 100 | 1011.7 |
| 20260506223914 | 46 | 188 | 1.0 | 8.0 | 0.00 | 0.49 | 0.00 | 100 | 1011.6 |
| 20260506223414 | 46 | 226 | 2.0 | 11.0 | 0.01 | 0.49 | 0.00 | 100 | 1011.7 |
| 20260506222914 | 46 | 216 | 4.0 | 9.0 | 0.01 | 0.49 | 0.00 | 100 | 1011.6 |
| 20260506222414 | 46 | 241 | 8.0 | 8.0 | 0.01 | 0.49 | 0.00 | 100 | 1011.7 |
| 20260506221914 | 46 | 219 | 3.0 | 10.0 | 0.01 | 0.49 | 0.00 | 100 | 1011.6 |
| 20260506221417 | 46 | 265 | 5.0 | 9.0 | 0.01 | 0.49 | 0.00 | 100 | 1011.6 |
| 20260506221414 | 46 | 265 | 5.0 | 9.0 | 0.01 | 0.49 | 0.00 | 100 | 1011.6 |
| 20260506220914 | 46 | 261 | 5.0 | 10.0 | 0.01 | 0.49 | 0.00 | 100 | 1011.4 |
| 20260506220414 | 46 | 220 | 6.0 | 9.0 | 0.01 | 0.49 | 0.00 | 100 | 1011.4 |
| 20260506215917 | 46 | 250 | 6.0 | 9.0 | 0.01 | 0.49 | 0.49 | 100 | 1011.4 |
| 20260506215914 | 46 | 250 | 6.0 | 9.0 | 0.01 | 0.49 | 0.49 | 100 | 1011.4 |
| 20260506215414 | 46 | 246 | 5.0 | 9.0 | 0.02 | 0.49 | 0.49 | 100 | 1011.3 |
| 20260506214914 | 46 | 229 | 3.0 | 9.0 | 0.02 | 0.49 | 0.49 | 100 | 1011.3 |
| 20260506214416 | 46 | 246 | 7.0 | 8.0 | 0.02 | 0.49 | 0.49 | 100 | 1011.3 |
| 20260506214414 | 46 | 246 | 7.0 | 8.0 | 0.02 | 0.49 | 0.49 | 100 | 1011.3 |
| 20260506213914 | 46 | 215 | 0.0 | 7.0 | 0.03 | 0.49 | 0.49 | 100 | 1011.2 |
| 20260506213414 | 46 | 255 | 7.0 | 8.0 | 0.02 | 0.48 | 0.48 | 100 | 1011.2 |
| 20260506212914 | 46 | 243 | 1.0 | 9.0 | 0.02 | 0.48 | 0.48 | 100 | 1011.2 |
| 20260506212414 | 46 | 268 | 7.0 | 9.0 | 0.03 | 0.48 | 0.48 | 100 | 1011.2 |
| 20260506211914 | 46 | 253 | 7.0 | 8.0 | 0.04 | 0.48 | 0.48 | 100 | 1011.2 |
| 20260506211417 | 46 | 264 | 7.0 | 8.0 | 0.04 | 0.48 | 0.48 | 100 | 1011.2 |
| 20260506211414 | 46 | 264 | 7.0 | 8.0 | 0.04 | 0.48 | 0.48 | 100 | 1011.2 |
| 20260506210914 | 46 | 239 | 4.0 | 8.0 | 0.04 | 0.48 | 0.48 | 100 | 1011.2 |
| 20260506210414 | 46 | 284 | 5.0 | 9.0 | 0.05 | 0.48 | 0.48 | 100 | 1011.1 |
| 20260506205914 | 46 | 182 | 3.0 | 9.0 | 0.05 | 0.48 | 0.48 | 100 | 1011.1 |
| 20260506205414 | 46 | 265 | 6.0 | 9.0 | 0.04 | 0.47 | 0.47 | 100 | 1011.1 |
| 20260506204914 | 46 | 171 | 3.0 | 8.0 | 0.05 | 0.47 | 0.47 | 100 | 1011.1 |
| 20260506204414 | 46 | 254 | 8.0 | 10.0 | 0.05 | 0.47 | 0.47 | 100 | 1011.0 |
| 20260506203914 | 46 | 213 | 5.0 | 9.0 | 0.04 | 0.46 | 0.46 | 100 | 1011.0 |
| 20260506203414 | 46 | 270 | 3.0 | 10.0 | 0.04 | 0.46 | 0.46 | 100 | 1011.0 |
| 20260506202918 | 46 | 250 | 5.0 | 13.0 | 0.05 | 0.46 | 0.46 | 100 | 1011.0 |
| 20260506202914 | 46 | 250 | 5.0 | 13.0 | 0.05 | 0.46 | 0.46 | 100 | 1011.0 |
| 20260506202414 | 46 | 171 | 5.0 | 11.0 | 0.04 | 0.45 | 0.45 | 100 | 1011.0 |
| 20260506201914 | 46 | 260 | 7.0 | 9.0 | 0.03 | 0.44 | 0.44 | 100 | 1011.0 |
| 20260506201414 | 46 | 232 | 6.0 | 9.0 | 0.04 | 0.44 | 0.44 | 100 | 1011.0 |
| 20260506200914 | 46 | 217 | 4.0 | 8.0 | 0.04 | 0.44 | 0.44 | 100 | 1011.0 |
| 20260506200414 | 46 | 247 | 6.0 | 8.0 | 0.03 | 0.43 | 0.43 | 100 | 1011.0 |
| 20260506195917 | 46 | 226 | 0.0 | 8.0 | 0.03 | 0.43 | 0.43 | 100 | 1011.0 |
| 20260506195914 | 46 | 226 | 0.0 | 8.0 | 0.03 | 0.43 | 0.43 | 100 | 1011.0 |
| 20260506195414 | 46 | 239 | 6.0 | 9.0 | 0.03 | 0.43 | 0.43 | 100 | 1011.0 |
| 20260506194914 | 46 | 237 | 3.0 | 8.0 | 0.02 | 0.42 | 0.42 | 100 | 1011.0 |
| 20260506194414 | 46 | 257 | 7.0 | 10.0 | 0.02 | 0.42 | 0.42 | 100 | 1010.9 |
| 20260506193914 | 46 | 180 | 7.0 | 9.0 | 0.02 | 0.42 | 0.42 | 100 | 1010.9 |
| 20260506193414 | 46 | 246 | 3.0 | 9.0 | 0.02 | 0.42 | 0.42 | 100 | 1010.9 |
| 20260506192914 | 46 | 240 | 7.0 | 12.0 | 0.01 | 0.41 | 0.41 | 100 | 1010.7 |
| 20260506192414 | 46 | 261 | 6.0 | 10.0 | 0.01 | 0.41 | 0.41 | 100 | 1010.7 |
| 20260506191914 | 46 | 236 | 6.0 | 10.0 | 0.01 | 0.41 | 0.41 | 100 | 1010.7 |
| 20260506191418 | 46 | 217 | 6.0 | 10.0 | 0.01 | 0.40 | 0.40 | 100 | 1010.6 |
| 20260506191414 | 46 | 217 | 6.0 | 10.0 | 0.01 | 0.40 | 0.40 | 100 | 1010.6 |
| 20260506190914 | 46 | 241 | 5.0 | 10.0 | 0.02 | 0.40 | 0.40 | 100 | 1010.5 |
| 20260506190414 | 46 | 170 | 2.0 | 8.0 | 0.02 | 0.40 | 0.40 | 100 | 1010.4 |
| 20260506185918 | 46 | 254 | 7.0 | 8.0 | 0.03 | 0.40 | 0.40 | 100 | 1010.4 |
| 20260506185914 | 46 | 254 | 7.0 | 8.0 | 0.03 | 0.40 | 0.40 | 100 | 1010.4 |
| 20260506185414 | 46 | 258 | 6.0 | 10.0 | 0.03 | 0.40 | 0.40 | 100 | 1010.0 |
| 20260506184914 | 46 | 255 | 7.0 | 9.0 | 0.03 | 0.40 | 0.40 | 100 | 1010.2 |
| 20260506184418 | 46 | 222 | 7.0 | 11.0 | 0.04 | 0.40 | 0.40 | 100 | 1010.2 |
| 20260506184414 | 46 | 222 | 7.0 | 11.0 | 0.04 | 0.40 | 0.40 | 100 | 1010.2 |
| 20260506183914 | 46 | 210 | 6.0 | 10.0 | 0.05 | 0.40 | 0.40 | 100 | 1010.2 |
| 20260506183414 | 47 | 230 | 3.0 | 9.0 | 0.05 | 0.40 | 0.40 | 100 | 1009.9 |
| 20260506182914 | 47 | 251 | 7.0 | 10.0 | 0.06 | 0.40 | 0.40 | 100 | 1010.1 |
| 20260506182414 | 47 | 241 | 6.0 | 12.0 | 0.06 | 0.40 | 0.40 | 100 | 1010.1 |
| 20260506181914 | 47 | 223 | 3.0 | 13.0 | 0.06 | 0.40 | 0.40 | 100 | 1010.0 |
| 20260506181418 | 47 | 241 | 7.0 | 16.0 | 0.05 | 0.39 | 0.39 | 100 | 1010.0 |
| 20260506181414 | 47 | 241 | 7.0 | 16.0 | 0.05 | 0.39 | 0.39 | 100 | 1010.0 |
| 20260506180914 | 47 | 226 | 9.0 | 11.0 | 0.04 | 0.38 | 0.38 | 100 | 1009.9 |
| 20260506180414 | 47 | 206 | 9.0 | 14.0 | 0.04 | 0.38 | 0.38 | 100 | 1009.8 |
| 20260506175919 | 48 | 257 | 14.0 | 14.0 | 0.03 | 0.37 | 0.37 | 100 | 1009.6 |
| 20260506175914 | 48 | 257 | 14.0 | 14.0 | 0.03 | 0.37 | 0.37 | 100 | 1009.6 |
| 20260506175414 | 48 | 192 | 0.0 | 14.0 | 0.03 | 0.37 | 0.37 | 100 | 1009.6 |
| 20260506174914 | 48 | 250 | 5.0 | 13.0 | 0.03 | 0.37 | 0.37 | 99 | 1009.6 |
| 20260506174419 | 49 | 265 | 6.0 | 22.0 | 0.02 | 0.36 | 0.36 | 98 | 1009.4 |
| 20260506174414 | 49 | 265 | 6.0 | 22.0 | 0.02 | 0.36 | 0.36 | 98 | 1009.4 |
| 20260506173914 | 49 | 226 | 7.0 | 10.0 | 0.01 | 0.35 | 0.35 | 98 | 1009.3 |